Flag for Colombia Weather past 2 weeks in Cartagena, Colombia

Now
90 °F

Passing clouds.


Feels Like: 103 °F
Forecast: N/A
Wind: 17 mph from Northeast

Location: Cartagena / Rafael Nunez

Current Time: Feb 28, 2015 at 4:31:28 PM

Latest Report: Feb 28, 2015 at 4:00 PM


Visibility: N/A

Pressure: 29.76 "Hg

Humidity: 67%

Dew point: 77 °F

Location of CartagenaLocation

Historic Weather in Cartagena — Graph

°F

Cartagena temperature yesterday

Maximum temperature yesterday: 91 °F (at 11:00 AM)
Minimum temperature yesterday: 77 °F (at 6:00 AM)
Average temperature yesterday: 83 °F

Past Weeks' High & Low Weather Summary

 TemperatureHumidityPressure
High91 °F (Feb 27, 11:00 AM)94% (Feb 16, 5:00 AM)29.92 "Hg (Feb 16, 5:00 AM)
Low75 °F (Feb 25, 7:00 AM)55% (Feb 16, 10:00 AM)27.76 "Hg (Feb 22, 2:00 PM)
Average83 °F77%29.72 "Hg
* Reported Feb 13 3:00 PM — Feb 28 3:00 PM, Cartagena, Weather by CustomWeather, © 2015

Note: Actual official high and low records may vary slightly from our data, if they occured in-between our weather recording intervals... More about our weather records

Advertising

Cartagena weather history for previous 24 hours

 ConditionsComfort  
Time TempWeatherWind HumidityBarometerVisibility
3:00 PM
Sat, Feb 28
91 °FPassing clouds.14 mph56%29.78 "HgN/A
2:00 PM91 °FPassing clouds.21 mph59%29.80 "HgN/A
1:00 PM88 °FScattered clouds.13 mph66%29.82 "HgN/A
12:00 PM91 °FScattered clouds.14 mph67%29.84 "HgN/A
11:00 AM91 °FSunny.7 mph59%29.86 "Hg10 mi
10:00 AM88 °FSunny.5 mph66%29.88 "Hg10 mi
9:00 AM84 °FSunny.5 mph74%29.86 "Hg10 mi
8:00 AM81 °FSunny.5 mph84%29.84 "Hg10 mi
7:00 AM77 °FSunny.5 mph94%29.81 "Hg10 mi
6:00 AM77 °FClear.2 mph94%29.79 "Hg10 mi
5:00 AM79 °FClear.5 mph89%29.76 "Hg10 mi
4:00 AM79 °FClear.14 mph89%29.74 "Hg10 mi
3:00 AM79 °FClear.5 mph89%29.75 "Hg10 mi
2:00 AM79 °FClear.5 mph89%29.75 "Hg10 mi
1:00 AM81 °FClear.6 mph89%29.77 "Hg10 mi
12:00 AM81 °FPassing clouds.7 mph84%29.78 "HgN/A
11:00 PM
Fri, Feb 27
81 °FPassing clouds.14 mph84%29.79 "HgN/A
10:00 PM81 °FPassing clouds.14 mph84%29.79 "HgN/A
9:00 PM81 °FPassing clouds.12 mph84%29.79 "HgN/A
8:00 PM81 °FPassing clouds.7 mph84%29.77 "HgN/A
7:00 PM82 °FPassing clouds.7 mph79%29.75 "HgN/A
6:00 PM82 °FPassing clouds.7 mph74%29.74 "HgN/A
5:00 PM86 °FSunny.13 mph70%29.75 "Hg10 mi
4:00 PM86 °FPassing clouds.12 mph66%29.73 "HgN/A
Weather by CustomWeather, © 2015

See weather overviewHow to use our weather pages